sat.trackr.live / text

‹ back to catalog

KUIPER-00279

NORAD 67795 · 2026-030AH

PAYLOAD ACTIVE UNKNOWN

§ Identity

Operator
Country
US
Launch date
2026-02-12
Launch site
FRGUI
Launch vehicle
Mass (kg)
RCS (m²)

External: N2YO · Heavens-Above · Gunter

§ Orbital elements

Epoch: 2026-09-20T20:25:12.777312Z

Period
97.30 min
Inclination
51.9045°
Eccentricity
0.0000586
Mean motion
14.79929598 rev/d
Perigee alt
629.1 km
Apogee alt
630.0 km
Semi-major
7,007.7 km
B*
-4.6134e-6
RAAN
35.1485°
Arg perigee
121.1850°
Mean anomaly
238.9170°
Rev number
3,456

§ Raw data

KUIPER-002791 67795U 26030AH  26263.85084233 -.00000256  00000+0 -46134-5 0  99942 67795  51.9045  35.1485 0000586 121.1850 238.9170 14.79929598 34564

JSON: /api/v1/satellites/67795 · /tle

For live sub-satellite position, see the globe view (requires WebGL).

§ Visibility from observer

Set your observer location to see the next 7 days of passes ≥ 10°. The values pass through the URL so the page stays shareable.

No JS? Fill the form by hand. The geolocation button needs JavaScript.